Regional Weather Roundup
Issued by NWS

Home | Current Version | Previous Version | Graphics & Text | Print | Product List | Glossary On
Versions: 1 2 3 4 5 6 7 8 9 10 11 12 13 14 15 16 17 18 19 20 21 22 23 24 25 26 27 28 29 30 31 32 33 34 35 36 37 38 39 40 41 42 43 44 45 46 47 48 49 50
000
ASUS43 KOAX 160002
RWRNE

WEATHER ROUNDUP FOR NEBRASKA
NATIONAL WEATHER SERVICE OMAHA NE
700 PM CDT TUE APR 15 2014

NOTES: SATELLITE DATA IS BEING USED TO AUGMENT CLOUD COVER ABOVE
       12000 FEET.
       "FAIR" INDICATES FEW OR NO CLOUDS BELOW 12,000 FEET WITH NO
       SIGNIFICANT WEATHER AND/OR OBSTRUCTIONS TO VISIBILITY.

  * THESE STATIONS DO NOT REPORT WEATHER SUCH AS RAIN...SNOW OR FOG.

NEZ001>004-019>022-054>056-160100-
NEBRASKA PANHANDLE

CITY           SKY/WX    TMP DP  RH WIND       PRES   REMARKS
SCOTTSBLUFF    MOSUNNY   63  22  20 W13       29.63F
6HR MIN TEMP:  57; 6HR MAX TEMP:  66;

ALLIANCE       MOSUNNY   60  20  21 W10       29.63F
6HR MIN TEMP:  56; 6HR MAX TEMP:  65;

CHADRON        PTSUNNY   62  26  25 W10       29.59F
6HR MIN TEMP:  58; 6HR MAX TEMP:  66;

KIMBALL        MOSUNNY   58  19  21 W10       29.67F
SIDNEY         SUNNY     65  15  14 W23       29.68F
6HR MIN TEMP:  59; 6HR MAX TEMP:  67;

$$

NEZ057>060-069>072-079>082-160100-
SOUTHWEST NEBRASKA

CITY           SKY/WX    TMP DP  RH WIND       PRES   REMARKS
NORTH PLATTE   MOSUNNY   65  19  17 SW18G24   29.67F
6HR MIN TEMP:  56; 6HR MAX TEMP:  67;

IMPERIAL       SUNNY     66  19  16 SW13      29.69F
6HR MIN TEMP:  58; 6HR MAX TEMP:  67;

LEXINGTON      PTSUNNY   63  34  34 S12       29.70F
MCCOOK         PTSUNNY   66  24  20 SW18G24   29.71F
6HR MIN TEMP:  57; 6HR MAX TEMP:  68;

OGALLALA       SUNNY     66  16  14 SW16G25   29.66F
$$

NEZ005>010-023>029-035>040-094-160100-
NORTH CENTRAL NEBRASKA

CITY           SKY/WX    TMP DP  RH WIND       PRES   REMARKS
VALENTINE      MOSUNNY   64  22  20 W9        29.60S
6HR MIN TEMP:  58; 6HR MAX TEMP:  68;

AINSWORTH      MOSUNNY   66  21  18 SW18G26   29.61S
BROKEN BOW     PTSUNNY   63  23  21 S18G28    29.68F
6HR MIN TEMP:  52; 6HR MAX TEMP:  65;

O`NEILL        PTSUNNY   58  24  26 S22G28    29.69F
ORD            CLOUDY    61  28  28 S22G30    29.69F
6HR MIN TEMP:  47; 6HR MAX TEMP:  62;

THEDFORD       SUNNY     66  22  18 SW13      29.64F
$$

NEZ041-046>049-061>064-073>077-083>087-160100-
SOUTH CENTRAL NEBRASKA

CITY           SKY/WX    TMP DP  RH WIND       PRES   REMARKS
GRAND ISLAND   CLOUDY    60  27  28 S14       29.77F
6HR MIN TEMP:  50; 6HR MAX TEMP:  64;

AURORA         CLOUDY    61  27  27 S15G21    29.78F
HASTINGS       CLOUDY    60  24  25 S12G23    29.77F
6HR MIN TEMP:  51; 6HR MAX TEMP:  63;

HEBRON         CLOUDY    60  20  21 S16G23    29.84F
HOLDREGE       CLOUDY    63  28  26 S17G25    29.73F
KEARNEY *      CLOUDY    59  30  33 S16       29.74F
YORK           CLOUDY    57  27  30 S16G23    29.81F
$$

NEZ011>018-030>034-042>045-160100-
NORTHEAST NEBRASKA

CITY           SKY/WX    TMP DP  RH WIND       PRES   REMARKS
NORFOLK        CLOUDY    55  27  34 SE17G24   29.78F
6HR MIN TEMP:  42; 6HR MAX TEMP:  55;

ALBION         CLOUDY    55  28  35 SE12      29.75F
BLAIR          PTSUNNY   51  27  39 SE17G24   29.89F
COLUMBUS *     CLOUDY    55  28  35 S15       29.81F
FREMONT        CLOUDY    54  25  31 SE16G24   29.87F
TEKAMAH        PTSUNNY   51  28  41 SE16      29.89F
6HR MIN TEMP:  43; 6HR MAX TEMP:  54;

$$

NEZ050>053-065>068-078-088>093-160100-
SOUTHEAST NEBRASKA

CITY           SKY/WX    TMP DP  RH WIND       PRES   REMARKS
LINCOLN        PTSUNNY   59  22  24 S16       29.87F
6HR MIN TEMP:  48; 6HR MAX TEMP:  60;

OMAHA EPPLEY   CLOUDY    53  26  35 S23       29.91F
6HR MIN TEMP:  42; 6HR MAX TEMP:  53;

BEATRICE       PTSUNNY   58  19  21 S16G22    29.88F
FALLS CITY     PTSUNNY   53  29  39 S14       29.96F
6HR MIN TEMP:  47; 6HR MAX TEMP:  55;

NEBRASKA CITY  PTSUNNY   53  28  39 S14G20    29.94F
$$

NEZ044-045-051>053-067-160100-
OMAHA AREA

CITY           SKY/WX    TMP DP  RH WIND       PRES   REMARKS
OMAHA EPPLEY   CLOUDY    53  26  35 S23       29.91F
6HR MIN TEMP:  42; 6HR MAX TEMP:  53;

BLAIR          PTSUNNY   51  27  39 SE17G24   29.89F
FREMONT        CLOUDY    54  25  31 SE16G24   29.87F
WAHOO          FAIR      53  25  33 SE17G23   29.86F
$$



USA.gov is the U.S. government's official web portal to all federal, state and local government web resources and services.